Beaver Falls, PA

9:41 PM EST on December 14, 2019 (GMT -0500)
Beaver County

Weather History for KBVI - November, 2019

Change the Weather History Date:

Wednesday, November 20, 2019

  Actual Average Record
Temperature  
Mean Temperature 40 °F -  
Max Temperature 44 °F 46 °F 60 °F (2007)
Min Temperature 35 °F 34 °F 23 °F (2014)
Degree Days  
Heating Degree Days 26    
Moisture  
Dew Point 34 °F    
Average Humidity 80    
Maximum Humidity 97    
Minimum Humidity 57    
Precipitation  
Precipitation 0.00 in - - ()
Sea Level Pressure  
Sea Level Pressure 30.13 in    
Wind  
Wind Speed 3 mph (WNW)    
Max Wind Speed 12 mph    
Max Gust Speed 17 mph    
Visibility 6 miles    
Events Fog    
Averages and records for this station are not official NWS values.
T = Trace of Precipitation, MM = Missing Value Source: NWS Daily Summary

Daily Weather History Graph

Daily Weather History Graph

Search for Another Location

Airport or City:

Astronomy

Nov. 20, 2019 Rise Set
Actual Time 7:14 AM EST 4:59 PM EST
Civil Twilight 6:44 AM EST 5:29 PM EST
Nautical Twilight 6:10 AM EST 6:02 PM EST
Astronomical Twilight 5:38 AM EST 6:35 PM EST
Moon No Moon Rise 1:57 PM EST (11/20)
Length of Visible Light 10h 45m
Length of Day
9h 45m
Last Quarter, 41% of the Moon is Illuminated
Nov 20
Last Quarter
Nov 26
New
Dec 4
First Quarter
Dec 12
Full
Dec 18
Last Quarter

Hourly Weather History & Observations

Time (EST) Temp. Windchill Dew Point Humidity Pressure Visibility Wind Dir Wind Speed Gust Speed Precip Events Conditions
12:15 AM 38.5 °F - 37.4 °F 96% 29.92 in 1.2 mi Calm Calm - N/A   Overcast
12:35 AM 38.3 °F - 37.4 °F 97% 29.93 in 0.2 mi Calm Calm - N/A Fog Fog
12:55 AM 38.5 °F 36.1 °F 37.4 °F 96% 29.93 in 0.5 mi WNW 3.5 mph - N/A Fog Fog
1:16 AM 38.5 °F - 37.4 °F 96% 29.94 in 0.8 mi Calm Calm - N/A   Overcast
1:35 AM 38.5 °F 36.1 °F 37.6 °F 97% 29.95 in 0.5 mi West 3.5 mph - N/A Fog Fog
1:55 AM 38.5 °F 36.1 °F 37.4 °F 96% 29.95 in 0.5 mi West 3.5 mph - N/A Fog Fog
1:56 AM 38.5 °F 35.0 °F 37.4 °F 96% 29.95 in 0.5 mi West 4.6 mph - N/A Fog Fog
2:15 AM 38.3 °F 35.9 °F 37.4 °F 97% 29.96 in 0.5 mi West 3.5 mph - N/A Fog Fog
2:16 AM 38.3 °F 35.9 °F 37.4 °F 97% 29.96 in 0.5 mi West 3.5 mph - N/A Fog Fog
2:35 AM 38.3 °F 35.9 °F 37.4 °F 97% 29.97 in 0.5 mi WNW 3.5 mph - N/A Fog Fog
2:36 AM 38.3 °F 35.9 °F 37.4 °F 97% 29.97 in 0.5 mi WNW 3.5 mph - N/A Fog Fog
2:55 AM 38.3 °F 35.9 °F 37.4 °F 97% 29.98 in 0.8 mi WNW 3.5 mph - N/A   Overcast
2:56 AM 38.3 °F 35.9 °F 37.4 °F 97% 29.98 in 0.8 mi WNW 3.5 mph - N/A   Overcast
3:15 AM 38.3 °F 35.9 °F 37.4 °F 97% 29.98 in 1.0 mi WNW 3.5 mph - N/A   Overcast
3:35 AM 38.3 °F 35.9 °F 37.4 °F 97% 29.99 in 1.5 mi WNW 3.5 mph - N/A   Overcast
3:36 AM 38.3 °F 35.9 °F 37.4 °F 97% 29.99 in 1.5 mi WNW 3.5 mph - N/A   Overcast
3:55 AM 38.3 °F 34.8 °F 37.4 °F 97% 29.99 in 2.0 mi NW 4.6 mph - N/A   Overcast
3:56 AM 38.3 °F 35.9 °F 37.4 °F 97% 29.99 in 2.0 mi NW 3.5 mph - N/A   Overcast
4:15 AM 38.3 °F 34.8 °F 37.4 °F 97% 30.00 in 2.0 mi WNW 4.6 mph - N/A   Overcast
4:35 AM 37.9 °F 35.5 °F 37.2 °F 97% 30.00 in 2.0 mi NW 3.5 mph - N/A   Overcast
4:55 AM 37.8 °F 35.3 °F 37.0 °F 97% 30.01 in 2.0 mi NW 3.5 mph - N/A   Overcast
4:56 AM 37.8 °F 35.3 °F 37.0 °F 97% 30.01 in 2.0 mi NW 3.5 mph - N/A   Overcast
5:15 AM 37.8 °F 35.3 °F 37.0 °F 97% 30.02 in 2.0 mi WNW 3.5 mph - N/A   Overcast
5:16 AM 37.9 °F 34.4 °F 37.0 °F 97% 30.02 in 2.0 mi WNW 4.6 mph - N/A   Overcast
5:35 AM 38.1 °F 34.6 °F 37.4 °F 97% 30.03 in 2.5 mi WNW 4.6 mph - N/A   Overcast
5:55 AM 38.3 °F 34.8 °F 37.4 °F 97% 30.04 in 2.5 mi WNW 4.6 mph - N/A   Overcast
5:56 AM 38.3 °F 34.8 °F 37.4 °F 97% 30.04 in 2.5 mi WNW 4.6 mph - N/A   Overcast
6:15 AM 38.1 °F 33.7 °F 37.2 °F 97% 30.04 in 2.5 mi WNW 5.8 mph - N/A   Overcast
6:16 AM 38.1 °F 34.6 °F 37.2 °F 97% 30.04 in 2.5 mi WNW 4.6 mph - N/A   Overcast
6:35 AM 38.3 °F 34.8 °F 37.4 °F 97% 30.05 in 2.5 mi WNW 4.6 mph - N/A   Overcast
6:55 AM 38.3 °F 35.9 °F 37.0 °F 95% 30.06 in 3.0 mi WNW 3.5 mph - N/A   Overcast
6:56 AM 38.3 °F 35.9 °F 37.0 °F 95% 30.06 in 3.0 mi WNW 3.5 mph - N/A   Overcast
7:15 AM 37.9 °F 35.5 °F 36.7 °F 95% 30.07 in 3.0 mi WNW 3.5 mph - N/A   Overcast
7:16 AM 37.9 °F 35.5 °F 36.7 °F 95% 30.07 in 3.0 mi WNW 3.5 mph - N/A   Overcast
7:35 AM 38.3 °F 34.8 °F 36.5 °F 93% 30.09 in 2.5 mi WNW 4.6 mph - N/A   Overcast
7:47 AM 37.4 °F 33.8 °F 35.6 °F 93% 30.09 in 2.5 mi WNW 4.6 mph - N/A   Overcast
7:56 AM 38.5 °F 34.1 °F 36.5 °F 93% 30.10 in 2.5 mi WNW 5.8 mph - N/A   Overcast
8:15 AM 38.7 °F 35.2 °F 36.3 °F 91% 30.10 in 2.5 mi WNW 4.6 mph - N/A   Overcast
8:16 AM 38.7 °F 36.3 °F 36.3 °F 91% 30.10 in 2.5 mi West 3.5 mph - N/A   Overcast
8:47 AM 39.2 °F 35.9 °F 35.6 °F 87% 30.11 in 2.5 mi WNW 4.6 mph - N/A   Overcast
8:55 AM 38.8 °F - 36.5 °F 91% 30.12 in 2.5 mi Calm Calm - N/A   Overcast
9:15 AM 39.2 °F - 36.5 °F 90% 30.12 in 3.0 mi Calm Calm - N/A   Overcast
9:16 AM 39.2 °F 37.0 °F 36.5 °F 90% 30.12 in 3.0 mi WNW 3.5 mph - N/A   Overcast
9:35 AM 39.4 °F 37.2 °F 36.5 °F 89% 30.13 in 3.0 mi WNW 3.5 mph - N/A   Overcast
9:55 AM 39.7 °F 36.5 °F 36.7 °F 89% 30.14 in 3.0 mi WNW 4.6 mph - N/A   Overcast
10:15 AM 40.3 °F 35.5 °F 36.7 °F 87% 30.14 in 4.0 mi NW 6.9 mph - N/A   Overcast
10:16 AM 40.3 °F 37.1 °F 36.7 °F 87% 30.14 in 4.0 mi NW 4.6 mph - N/A   Overcast
10:35 AM 40.8 °F 38.8 °F 36.7 °F 85% 30.14 in 4.0 mi WNW 3.5 mph - N/A   Overcast
10:47 AM 41.0 °F 37.1 °F 37.4 °F 87% 30.14 in 4.0 mi NW 5.8 mph - N/A   Overcast
10:56 AM 41.5 °F 37.1 °F 36.5 °F 82% 30.15 in 5.0 mi WNW 6.9 mph - N/A   Haze
11:15 AM 42.1 °F 37.1 °F 35.6 °F 78% 30.15 in 7.0 mi WNW 8.1 mph - N/A   Overcast
11:16 AM 42.1 °F 37.1 °F 35.6 °F 78% 30.15 in 7.0 mi WNW 8.1 mph - N/A   Overcast
11:35 AM 43.0 °F 38.8 °F 35.6 °F 75% 30.15 in 7.0 mi NW 6.9 mph - N/A   Overcast
11:36 AM 43.0 °F 38.8 °F 35.2 °F 74% 30.15 in 7.0 mi NW 6.9 mph - N/A   Overcast
11:55 AM 43.2 °F 38.4 °F 34.2 °F 71% 30.15 in 10.0 mi WNW 8.1 mph - N/A   Overcast
11:56 AM 43.2 °F 39.0 °F 34.0 °F 70% 30.15 in 10.0 mi WNW 6.9 mph - N/A   Overcast
12:15 PM 43.7 °F 40.3 °F 32.5 °F 65% 30.15 in 10.0 mi WNW 5.8 mph - N/A   Overcast
12:16 PM 43.7 °F 39.7 °F 32.5 °F 65% 30.15 in 10.0 mi WNW 6.9 mph - N/A   Overcast
12:35 PM 43.2 °F 38.4 °F 32.2 °F 65% 30.15 in 10.0 mi West 8.1 mph - N/A   Overcast
12:56 PM 43.0 °F 38.8 °F 32.0 °F 65% 30.15 in 10.0 mi West 6.9 mph - N/A   Overcast
1:15 PM 43.7 °F 39.7 °F 31.8 °F 63% 30.15 in 10.0 mi WNW 6.9 mph - N/A   Overcast
1:35 PM 43.9 °F 37.9 °F 29.8 °F 58% 30.16 in 10.0 mi NW 11.5 mph 17.3 mph N/A   Overcast
1:47 PM 44.6 °F 40.7 °F 30.2 °F 57% 30.16 in 10.0 mi WNW 6.9 mph - N/A   Overcast
1:56 PM 43.3 °F 39.2 °F 32.0 °F 64% 30.16 in 10.0 mi West 6.9 mph - N/A   Overcast
2:15 PM 43.2 °F 39.7 °F 32.2 °F 65% 30.17 in 10.0 mi WNW 5.8 mph - N/A   Overcast
2:35 PM 43.0 °F 38.8 °F 32.0 °F 65% 30.17 in 10.0 mi WNW 6.9 mph - N/A   Overcast
2:47 PM 42.8 °F 39.3 °F 32.0 °F 66% 30.17 in 10.0 mi WNW 5.8 mph - N/A   Overcast
2:55 PM 42.8 °F 38.0 °F 32.0 °F 66% 30.17 in 10.0 mi WNW 8.1 mph - N/A   Overcast
3:15 PM 42.8 °F 38.6 °F 32.0 °F 66% 30.18 in 10.0 mi NW 6.9 mph - N/A   Overcast
3:35 PM 42.8 °F 38.6 °F 31.8 °F 65% 30.18 in 10.0 mi NW 6.9 mph - N/A   Overcast
3:47 PM 42.8 °F 40.1 °F 32.0 °F 66% 30.18 in 10.0 mi NW 4.6 mph - N/A   Overcast
3:55 PM 42.6 °F - 31.8 °F 66% 30.19 in 10.0 mi Calm Calm - N/A   Overcast
3:56 PM 42.6 °F - 31.8 °F 66% 30.19 in 10.0 mi Calm Calm - N/A   Overcast
4:15 PM 42.6 °F 39.0 °F 31.8 °F 66% 30.19 in 10.0 mi WNW 5.8 mph - N/A   Overcast
4:16 PM 42.6 °F 39.0 °F 31.8 °F 66% 30.19 in 10.0 mi WNW 5.8 mph - N/A   Overcast
4:35 PM 42.3 °F 37.9 °F 31.3 °F 65% 30.20 in 10.0 mi WNW 6.9 mph - N/A   Overcast
4:55 PM 42.1 °F 38.4 °F 30.9 °F 65% 30.20 in 10.0 mi West 5.8 mph - N/A   Overcast
5:15 PM 41.9 °F 38.2 °F 30.9 °F 65% 30.21 in 10.0 mi West 5.8 mph - N/A   Overcast
5:16 PM 41.9 °F 39.0 °F 30.9 °F 65% 30.21 in 10.0 mi West 4.6 mph - N/A   Overcast
5:35 PM 41.9 °F 38.2 °F 30.9 °F 65% 30.22 in 10.0 mi West 5.8 mph - N/A   Overcast
5:47 PM 41.0 °F 37.1 °F 30.2 °F 65% 30.22 in 10.0 mi NW 5.8 mph - N/A   Overcast
5:55 PM 41.5 °F 39.6 °F 31.1 °F 66% 30.22 in 10.0 mi NW 3.5 mph - N/A   Overcast
5:56 PM 41.5 °F 39.6 °F 31.1 °F 66% 30.22 in 10.0 mi NW 3.5 mph - N/A   Overcast
6:15 PM 41.2 °F 39.2 °F 31.1 °F 67% 30.22 in 10.0 mi NNW 3.5 mph - N/A   Overcast
6:16 PM 41.2 °F 38.2 °F 31.1 °F 67% 30.22 in 10.0 mi NW 4.6 mph - N/A   Overcast
6:35 PM 40.8 °F 38.8 °F 30.9 °F 68% 30.23 in 10.0 mi NNW 3.5 mph - N/A   Overcast
6:47 PM 39.2 °F 35.0 °F 30.2 °F 70% 30.23 in 10.0 mi NW 5.8 mph - N/A   Overcast
6:55 PM 40.3 °F 37.1 °F 30.6 °F 68% 30.23 in 10.0 mi NNW 4.6 mph - N/A   Overcast
7:15 PM 40.1 °F 36.9 °F 30.6 °F 69% 30.24 in 10.0 mi NNW 4.6 mph - N/A   Overcast
7:16 PM 40.1 °F 36.9 °F 30.6 °F 69% 30.24 in 10.0 mi NNW 4.6 mph - N/A   Overcast
7:35 PM 40.1 °F - 30.2 °F 68% 30.25 in 10.0 mi Calm Calm - N/A   Overcast
7:47 PM 39.2 °F - 30.2 °F 70% 30.25 in 10.0 mi Calm Calm - N/A   Overcast
7:55 PM 39.6 °F - 30.2 °F 69% 30.25 in 10.0 mi Calm Calm - N/A   Overcast
8:15 PM 39.7 °F - 30.2 °F 69% 30.25 in 10.0 mi Calm Calm - N/A   Overcast
8:16 PM 39.7 °F - 30.2 °F 69% 30.25 in 10.0 mi Calm Calm - N/A   Overcast
8:35 PM 39.7 °F - 30.0 °F 68% 30.26 in 10.0 mi Calm Calm - N/A   Overcast
8:36 PM 39.7 °F - 30.0 °F 68% 30.26 in 10.0 mi Calm Calm - N/A   Overcast
8:55 PM 39.4 °F - 30.0 °F 69% 30.26 in 10.0 mi Calm Calm - N/A   Overcast
8:56 PM 39.4 °F - 30.2 °F 70% 30.26 in 10.0 mi Calm Calm - N/A   Overcast
9:15 PM 38.3 °F 35.9 °F 29.8 °F 72% 30.25 in 10.0 mi North 3.5 mph - N/A   Mostly Cloudy
9:35 PM 37.4 °F - 29.8 °F 74% 30.26 in 10.0 mi Calm Calm - N/A   Clear
9:36 PM 37.4 °F - 29.8 °F 74% 30.26 in 10.0 mi Calm Calm - N/A   Clear
9:55 PM 36.7 °F - 29.3 °F 75% 30.26 in 10.0 mi Calm Calm - N/A   Scattered Clouds
9:56 PM 36.5 °F - 29.3 °F 75% 30.26 in 10.0 mi Calm Calm - N/A   Scattered Clouds
10:15 PM 36.7 °F - 29.8 °F 76% 30.26 in 10.0 mi Calm Calm - N/A   Overcast
10:16 PM 36.7 °F - 29.8 °F 76% 30.26 in 10.0 mi Calm Calm - N/A   Mostly Cloudy
10:35 PM 37.0 °F - 29.7 °F 75% 30.25 in 10.0 mi Calm Calm - N/A   Scattered Clouds
11:15 PM 37.0 °F - 29.7 °F 75% 30.25 in 10.0 mi Calm Calm - N/A   Clear
11:55 PM 35.4 °F - 29.3 °F 78% 30.26 in 10.0 mi Calm Calm - N/A   Clear
11:56 PM 35.2 °F - 29.3 °F 79% 30.26 in 10.0 mi Calm Calm - N/A   Clear